Location: Karlsruhe
(49.0131°N, 8.3874°E)
Time: 03:57:23
(UTC+01:00)

ISS - Visible Passes

Search period start: 23 February 2018 00:00
Search period end: 05 March 2018 00:00
Orbit: 402 x 407 km, 51.6° (Epoch: 23 February)

Date Brightness Start Highest point End Pass type
(mag) Time Alt. Az. Time Alt. Az. Time Alt. Az.
26 Feb -0.8 06:24:52 10° S 06:26:40 14° SE 06:28:29 10° ESE visible
28 Feb -1.8 06:15:28 10° SSW 06:18:17 27° SE 06:21:06 10° E visible
01 Mar -1.2 05:23:59 10° S 05:26:10 17° SE 05:28:21 10° E visible
02 Mar -3.1 06:06:46 10° SW 06:09:57 49° SSE 06:13:09 10° ENE visible
03 Mar -2.4 05:16:44 25° S 05:17:44 31° SE 05:20:41 10° E visible
04 Mar -1.2 04:26:36 17° ESE 04:26:36 17° ESE 04:28:01 10° E visible
04 Mar -3.8 05:59:15 17° WSW 06:01:41 85° SSE 06:04:58 10° ENE visible
